| time (UTC) | temp F | wind direction | speed knots | gust knots | rain 1hr in | rain 24hr in | rain mn in | humidity % | barometer mb |
| 20260510131534 | 49 | 355 | 1.7 | 4.3 | 0.00 | 0.00 | 0.00 | 54 | 1020.8 |
| 20260510130034 | 48 | 9 | 0.0 | 2.6 | 0.00 | 0.00 | 0.00 | 57 | 1020.7 |
| 20260510124530 | 47 | 5 | 1.7 | 3.5 | 0.00 | 0.00 | 0.00 | 59 | 1020.5 |
| 20260510123029 | 45 | 9 | 0.9 | 3.5 | 0.00 | 0.00 | 0.00 | 62 | 1020.4 |
| 20260510121526 | 44 | 355 | 0.9 | 3.5 | 0.00 | 0.00 | 0.00 | 68 | 1020.3 |
| 20260510120023 | 43 | 244 | 0.0 | 1.7 | 0.00 | 0.00 | 0.00 | 68 | 1019.9 |
| 20260510114520 | 42 | 244 | 0.9 | 2.6 | 0.00 | 0.00 | 0.00 | 67 | 1019.8 |
| 20260510113021 | 42 | 234 | 0.9 | 1.7 | 0.00 | 0.00 | 0.00 | 67 | 1019.6 |
| 20260510111514 | 41 | 234 | 0.0 | 1.7 | 0.00 | 0.00 | 0.00 | 67 | 1019.3 |
| 20260510110020 | 41 | 234 | 0.9 | 1.7 | 0.00 | 0.00 | 0.00 | 67 | 1019.2 |
| 20260510104509 | 41 | 234 | 0.0 | 2.6 | 0.00 | 0.00 | 0.00 | 66 | 1019.0 |
| 20260510103009 | 41 | 235 | 0.9 | 1.7 | 0.00 | 0.00 | 0.00 | 66 | 1018.7 |
| 20260510101507 | 41 | 235 | 0.0 | 1.7 | 0.00 | 0.00 | 0.00 | 66 | 1018.7 |
| 20260510100004 | 41 | 263 | 0.0 | 1.7 | 0.00 | 0.00 | 0.00 | 66 | 1018.4 |
| 20260510094504 | 41 | 263 | 0.0 | 1.7 | 0.00 | 0.00 | 0.00 | 66 | 1018.1 |
| 20260510093059 | 42 | 263 | 1.7 | 2.6 | 0.00 | 0.00 | 0.00 | 64 | 1018.0 |
| 20260510091557 | 42 | 263 | 0.0 | 2.6 | 0.00 | 0.00 | 0.00 | 64 | 1017.9 |
| 20260510090057 | 42 | 262 | 0.9 | 2.6 | 0.00 | 0.00 | 0.00 | 63 | 1017.8 |
| 20260510084601 | 42 | 269 | 0.9 | 2.6 | 0.00 | 0.00 | 0.00 | 62 | 1017.6 |
| 20260510083111 | 43 | 306 | 0.9 | 1.7 | 0.00 | 0.00 | 0.00 | 61 | 1017.4 |
| 20260510081608 | 43 | 311 | 0.0 | 0.9 | 0.00 | 0.00 | 0.00 | 61 | 1017.2 |
| 20260510080045 | 44 | 311 | 0.0 | 1.7 | 0.00 | 0.00 | 0.00 | 59 | 1017.0 |
| 20260510074543 | 44 | 311 | 0.0 | 1.7 | 0.00 | 0.00 | 0.00 | 58 | 1017.0 |
| 20260510073048 | 45 | 312 | 0.0 | 0.0 | 0.00 | 0.00 | 0.00 | 57 | 1017.0 |
| 20260510071537 | 46 | 312 | 0.0 | 0.0 | 0.00 | 0.00 | 0.00 | 55 | 1017.1 |
| 20260510070037 | 47 | 312 | 0.0 | 1.7 | 0.00 | 0.00 | 0.00 | 54 | 1017.1 |
| 20260510064535 | 47 | 312 | 0.0 | 1.7 | 0.00 | 0.00 | 0.00 | 53 | 1016.9 |
| 20260510063032 | 47 | 312 | 0.9 | 2.6 | 0.00 | 0.00 | 0.00 | 52 | 1016.9 |
| 20260510061530 | 48 | 313 | 0.9 | 2.6 | 0.00 | 0.00 | 0.00 | 52 | 1016.8 |
| 20260510060038 | 48 | 313 | 0.9 | 2.6 | 0.00 | 0.00 | 0.00 | 52 | 1016.8 |
| 20260510054525 | 48 | 313 | 0.0 | 1.7 | 0.00 | 0.00 | 0.00 | 49 | 1016.7 |
| 20260510053023 | 48 | 314 | 0.9 | 1.7 | 0.00 | 0.00 | 0.00 | 49 | 1016.6 |
| 20260510051520 | 49 | 315 | 0.0 | 1.7 | 0.00 | 0.00 | 0.00 | 46 | 1016.3 |
| 20260510050017 | 50 | 315 | 0.0 | 2.6 | 0.00 | 0.00 | 0.00 | 45 | 1016.4 |
| 20260510044515 | 50 | 319 | 0.9 | 4.3 | 0.00 | 0.00 | 0.00 | 44 | 1016.5 |
| 20260510043013 | 51 | 303 | 1.7 | 4.3 | 0.00 | 0.00 | 0.00 | 44 | 1016.4 |
| 20260510041511 | 51 | 324 | 1.7 | 5.2 | 0.00 | 0.00 | 0.00 | 43 | 1016.3 |
| 20260510040008 | 52 | 324 | 2.6 | 7.0 | 0.00 | 0.00 | 0.00 | 41 | 1016.1 |
| 20260510034505 | 52 | 328 | 1.7 | 8.7 | 0.00 | 0.00 | 0.00 | 42 | 1015.9 |
| 20260510033002 | 52 | 331 | 2.6 | 5.2 | 0.00 | 0.00 | 0.00 | 41 | 1015.7 |
| 20260510031606 | 53 | 296 | 3.5 | 7.0 | 0.00 | 0.00 | 0.00 | 39 | 1015.5 |
| 20260510030059 | 53 | 322 | 3.5 | 7.8 | 0.00 | 0.00 | 0.00 | 38 | 1015.2 |
| 20260510024553 | 54 | 296 | 3.5 | 8.7 | 0.00 | 0.00 | 0.00 | 37 | 1015.0 |
| 20260510023052 | 54 | 293 | 3.5 | 7.8 | 0.00 | 0.00 | 0.00 | 37 | 1014.6 |
| 20260510021547 | 54 | 284 | 3.5 | 8.7 | 0.00 | 0.00 | 0.00 | 36 | 1014.2 |
| 20260510020044 | 55 | 309 | 3.5 | 8.7 | 0.00 | 0.00 | 0.00 | 35 | 1013.9 |
| 20260510014545 | 56 | 333 | 7.0 | 12.2 | 0.00 | 0.00 | 0.00 | 34 | 1013.5 |
| 20260510013045 | 56 | 329 | 4.3 | 10.4 | 0.00 | 0.00 | 0.00 | 33 | 1013.4 |
| 20260510011536 | 57 | 329 | 7.0 | 12.2 | 0.00 | 0.00 | 0.00 | 32 | 1013.0 |
| 20260510010034 | 58 | 296 | 7.0 | 13.0 | 0.00 | 0.00 | 0.00 | 31 | 1012.9 |
| 20260510004532 | 58 | 296 | 4.3 | 14.8 | 0.00 | 0.00 | 0.00 | 31 | 1012.7 |
| 20260510003032 | 59 | 333 | 5.2 | 12.2 | 0.00 | 0.00 | 0.00 | 30 | 1012.5 |
| 20260510001529 | 59 | 315 | 6.1 | 15.6 | 0.00 | 0.00 | 0.00 | 30 | 1012.4 |
| 20260510000027 | 60 | 326 | 5.2 | 12.2 | 0.00 | 0.00 | 0.00 | 29 | 1012.2 |
| 20260509234535 | 60 | 325 | 5.2 | 13.0 | 0.00 | 0.00 | 0.00 | 29 | 1012.0 |
| 20260509233024 | 60 | 315 | 7.0 | 15.6 | 0.00 | 0.00 | 0.00 | 29 | 1011.9 |
| 20260509231523 | 60 | 332 | 4.3 | 13.0 | 0.00 | 0.00 | 0.00 | 28 | 1011.8 |
| 20260509230022 | 60 | 280 | 8.7 | 14.8 | 0.00 | 0.00 | 0.00 | 28 | 1011.6 |
| 20260509224520 | 60 | 322 | 6.1 | 17.4 | 0.00 | 0.00 | 0.00 | 28 | 1011.3 |
| 20260509223020 | 61 | 315 | 6.1 | 17.4 | 0.00 | 0.00 | 0.00 | 29 | 1011.2 |
| 20260509221520 | 60 | 331 | 7.8 | 16.5 | 0.00 | 0.00 | 0.00 | 28 | 1011.2 |
| 20260509220018 | 61 | 360 | 7.8 | 13.0 | 0.00 | 0.00 | 0.00 | 28 | 1011.1 |
| 20260509214520 | 61 | 355 | 5.2 | 13.9 | 0.00 | 0.00 | 0.00 | 29 | 1011.1 |
| 20260509213015 | 61 | 325 | 7.0 | 15.6 | 0.00 | 0.00 | 0.00 | 29 | 1010.9 |
| 20260509211515 | 60 | 297 | 5.2 | 16.5 | 0.00 | 0.00 | 0.00 | 30 | 1010.9 |
| 20260509210012 | 60 | 13 | 5.2 | 13.0 | 0.00 | 0.00 | 0.00 | 29 | 1010.9 |
| 20260509204512 | 60 | 343 | 7.8 | 18.2 | 0.00 | 0.00 | 0.00 | 30 | 1010.8 |
| 20260509203010 | 60 | 323 | 5.2 | 17.4 | 0.00 | 0.00 | 0.00 | 28 | 1010.7 |
| 20260509201510 | 60 | 333 | 6.1 | 14.8 | 0.00 | 0.00 | 0.00 | 30 | 1010.8 |
| 20260509200008 | 59 | 323 | 7.0 | 15.6 | 0.00 | 0.00 | 0.00 | 29 | 1010.8 |
| 20260509194507 | 60 | 317 | 6.1 | 15.6 | 0.00 | 0.00 | 0.00 | 31 | 1010.7 |
| 20260509193006 | 59 | 290 | 10.4 | 20.0 | 0.00 | 0.00 | 0.00 | 29 | 1010.6 |
| 20260509191506 | 59 | 271 | 5.2 | 13.9 | 0.00 | 0.00 | 0.00 | 34 | 1010.5 |
| 20260509190004 | 58 | 302 | 9.6 | 18.2 | 0.00 | 0.00 | 0.00 | 32 | 1010.6 |
| 20260509184655 | 58 | 304 | 8.7 | 15.6 | 0.00 | 0.00 | 0.00 | 35 | 1010.4 |
| 20260509183106 | 59 | 347 | 7.8 | 19.1 | 0.00 | 0.00 | 0.00 | 36 | 1010.3 |
| 20260509181556 | 58 | 305 | 7.0 | 13.9 | 0.00 | 0.00 | 0.00 | 36 | 1010.0 |
| 20260509180050 | 58 | 13 | 5.2 | 12.2 | 0.00 | 0.00 | 0.00 | 37 | 1009.9 |
| 20260509174547 | 57 | 321 | 10.4 | 16.5 | 0.00 | 0.00 | 0.00 | 37 | 1009.5 |